[[{"header":{"parameterUnit":"m.s-1","parameterCategory":1,"la1":30.2991,"la2":30.254,"lo1":-89.0895,"lo2":-89.0444,"dy":0.0017,"dx":0.0017,"nx":28,"ny":28,"refTime":"2025-07-29T09:00:00:Z","depth":0,"parameterNumber":2,"parameterNumberName":"U-component_of_WINDS"},"data":[0,0,0,0,0,0,0,0,0,0,0,0,0,0,0,0,0,0,0,0,0,0,0,0,0,0,0,0,0,0,0,0,0,0,0,0,0,0,0,0,0,0,0,0,0,0,0,0,0,0,0,0,0,0,0,0,0,0,1.6786,1.6786,0,1.6812,1.6812,1.6812,1.6798,1.6798,1.6797,1.6796,1.6821,1.6823,1.6824,0,0,0,0,0,0,0,0,0,0,0,0,0,1.6724,1.6725,1.6786,1.6786,1.6787,1.6812,1.6812,1.6812,1.6799,1.6798,1.6797,1.6796,1.6821,1.6822,1.6824,0,0,0,0,0,0,0,0,0,0,0,0,0,1.675,1.6726,1.6786,1.6783,1.6783,1.6812,1.6812,1.6812,1.6799,1.6798,1.6797,1.6796,1.682,1.6822,1.6824,1.6857,0,0,1.683,1.6831,0,0,0,0,0,0,0,0,1.6749,1.6753,1.6783,1.6783,1.6783,1.6801,1.6799,1.6827,1.6799,1.6793,1.6796,1.6795,1.6815,1.6818,1.6825,1.6858,1.6859,1.683,1.6832,1.6832,1.6833,0,0,0,0,0,0,0,1.6747,1.6751,1.6796,1.6784,1.6784,1.678,1.6782,1.6804,1.6809,1.6793,1.6792,1.6796,1.6815,1.6823,1.6825,1.686,1.683,1.6832,1.6833,1.6834,1.6921,1.6922,0,0,0,0,0,0,1.6746,1.675,1.6795,1.6797,1.6763,1.6782,1.6785,1.6796,1.6809,1.681,1.6796,1.6795,1.682,1.6823,1.6826,1.6865,1.6832,1.6834,1.6835,1.692,1.6922,1.6923,0,0,0,0,0,0,1.6744,1.675,1.6794,1.6773,1.6779,1.6784,1.6797,1.6797,1.6805,1.6812,1.6812,1.6803,1.6819,1.6823,1.685,1.6866,1.6835,1.6837,1.6919,1.6921,1.6922,1.6944,0,0,0,0,0,0,1.6743,1.6749,1.6762,1.6774,1.678,1.6818,1.6798,1.6799,1.6809,1.6807,1.6818,1.6819,1.6819,1.6847,1.6852,1.6868,1.6839,1.6917,1.692,1.6922,1.6942,1.6946,1.695,0,0,0,0,0,1.674,1.6767,1.6763,1.6769,1.6796,1.6819,1.6822,1.6822,1.681,1.6823,1.6827,1.6819,1.6863,1.685,1.6855,1.6872,1.6916,1.6919,1.6922,1.694,1.6945,1.695,0,0,0,0,0,0,1.6757,1.6769,1.6764,1.6795,1.6806,1.6817,1.6833,1.6827,1.6841,1.6839,1.6837,1.684,1.6867,1.6872,1.6857,1.6905,1.6888,1.6892,1.69,1.6905,1.6909,1.6908,1.684,0,0,0,0,0,1.6764,1.6783,1.6791,1.6818,1.6824,1.6827,1.6837,1.6836,1.6847,1.6851,1.6857,1.6868,1.6884,1.6895,1.6911,1.6943,1.6945,1.6957,1.6961,1.6965,1.6968,1.6985,1.6991,1.6931,1.6931,1.6931,0,0,1.678,1.6788,1.68,1.6822,1.683,1.6848,1.6831,1.6851,1.6865,1.6854,1.688,1.6884,1.6896,1.6926,1.6939,1.6931,1.6985,1.6968,1.697,1.6972,1.6988,1.6994,1.6999,1.6933,1.6933,1.6932,0,0,1.6817,1.6825,1.6849,1.6857,1.687,1.6872,1.6878,1.6889,1.6892,1.6918,1.691,1.6926,1.6954,1.6963,1.6971,1.7011,1.7004,1.7016,1.7038,1.7054,1.7059,1.7063,1.7078,1.7083,1.7019,1.702,1.702,0,1.6834,1.6862,1.6861,1.6882,1.6892,1.6883,1.6906,1.6915,1.6932,1.6939,1.6929,1.6965,1.6972,1.7003,1.7013,1.702,1.7026,1.7015,1.7059,1.7063,1.7066,1.708,1.7086,1.7021,1.7021,1.7021,1.702,0,1.6883,1.6902,1.6919,1.6936,1.6948,1.697,1.6972,1.6984,1.6981,1.6984,1.701,1.7018,1.7035,1.7043,1.704,1.7074,1.7068,1.7059,1.7042,1.7074,1.7086,1.7092,1.7023,1.7022,1.7022,1.7022,0,0,1.6931,1.6948,1.6954,1.6962,1.6975,1.699,1.7011,1.7028,1.7039,1.7051,1.7068,1.7092,1.7084,1.7093,1.7091,1.7106,1.7138,1.7095,1.7095,1.7102,1.7175,1.7182,1.7188,1.7133,1.7134,1.7135,1.7174,0,1.697,1.7008,1.7007,1.7042,1.706,1.7052,1.707,1.708,1.7084,1.7099,1.7102,1.7119,1.7107,1.7112,1.7127,1.7131,1.7152,1.7128,1.7149,1.715,1.7147,1.7195,1.7202,1.7238,1.7179,1.718,1.718,0,1.702,1.7034,1.7071,1.7081,1.7089,1.7106,1.7121,1.7136,1.7147,1.7148,1.7158,1.7154,1.7176,1.7158,1.7187,1.7171,1.718,1.7183,1.7184,1.7186,1.7167,1.7198,1.725,1.7255,1.7188,1.7187,1.7187,0,1.7052,1.708,1.7105,1.7112,1.7125,1.7137,1.7143,1.7153,1.7164,1.7177,1.7184,1.7199,1.7207,1.7219,1.7219,1.7207,1.7249,1.7232,1.725,1.725,1.726,1.7259,1.7314,1.7265,1.7265,1.7265,1.7265,0,1.7094,1.7117,1.712,1.7136,1.7161,1.716,1.7185,1.7189,1.7198,1.7215,1.7208,1.7224,1.7223,1.7238,1.7239,1.7263,1.7266,1.7268,1.7268,1.7268,1.7268,1.7274,1.7272,1.7266,1.7266,1.7266,1.7266,0,1.7135,1.7137,1.7165,1.7175,1.7178,1.7196,1.7205,1.722,1.7222,1.7243,1.7248,1.7252,1.727,1.7271,1.7291,1.7291,1.7321,1.7317,1.7317,1.7316,1.7335,1.7333,1.7396,1.7404,1.735,1.735,1.7351,0,1.7162,1.7179,1.7192,1.7202,1.7209,1.7226,1.7237,1.7236,1.7247,1.7261,1.7274,1.7291,1.7305,1.7334,1.7338,1.7354,1.7351,1.7372,1.7354,1.7354,1.7352,1.7351,1.7352,1.7376,1.7376,1.7377,1.7377,0,1.721,1.7211,1.7226,1.7242,1.7255,1.7267,1.7279,1.7288,1.7289,1.7301,1.732,1.733,1.7351,1.7368,1.7384,1.7389,1.7383,1.7383,1.7388,1.7389,1.7388,1.7389,1.7327,1.7381,1.7381,1.7381,1.738,1.738,1.7245,1.726,1.7271,1.7288,1.7297,1.7308,1.7322,1.7327,1.7342,1.736,1.7358,1.7378,1.7389,1.7409,1.7415,1.7431,1.7424,1.7431,1.7433,1.7435,1.7437,1.7386,1.7434,1.7433,1.7433,1.7433,1.7433,0,1.7293,1.73,1.7316,1.7332,1.7346,1.7339,1.7352,1.7363,1.7381,1.7392,1.7405,1.7426,1.7443,1.7449,1.7464,1.7476,1.7473,1.748,1.7479,1.7481,1.7442,1.7436,1.7482,1.7482,1.7482,1.7482,1.7482,1.7482,1.732,1.7345,1.7346,1.7376,1.7382,1.7402,1.741,1.742,1.7428,1.7451,1.7465,1.7469,1.7477,1.7494,1.7509,1.751,1.7516,1.7524,1.7524,1.7488,1.7483,1.7479,1.7473,1.7525,1.7525,1.7561,1.7561,1.7561]},{"header":{"parameterUnit":"m.s-1","parameterCategory":1,"la1":30.2991,"la2":30.254,"lo1":-89.0895,"lo2":-89.0444,"dy":0.0017,"dx":0.0017,"nx":28,"ny":28,"refTime":"2025-07-29T09:00:00:Z","depth":0,"parameterNumber":3,"parameterNumberName":"V-component_of_WINDS"},"data":[0,0,0,0,0,0,0,0,0,0,0,0,0,0,0,0,0,0,0,0,0,0,0,0,0,0,0,0,0,0,0,0,0,0,0,0,0,0,0,0,0,0,0,0,0,0,0,0,0,0,0,0,0,0,0,0,0,0,-1.7712,-1.7712,0,-1.7727,-1.7727,-1.7727,-1.7706,-1.7705,-1.7704,-1.7703,-1.7717,-1.7718,-1.7719,0,0,0,0,0,0,0,0,0,0,0,0,0,-1.7664,-1.7665,-1.7712,-1.7712,-1.7713,-1.7727,-1.7727,-1.7727,-1.7706,-1.7705,-1.7704,-1.7703,-1.7717,-1.7718,-1.7719,0,0,0,0,0,0,0,0,0,0,0,0,0,-1.7683,-1.7665,-1.7712,-1.7704,-1.7703,-1.7727,-1.7727,-1.7727,-1.7706,-1.7705,-1.7704,-1.7703,-1.7716,-1.7718,-1.7719,-1.7752,0,0,-1.7724,-1.7725,0,0,0,0,0,0,0,0,-1.7681,-1.7684,-1.7705,-1.7704,-1.7704,-1.7713,-1.7715,-1.7736,-1.7706,-1.7705,-1.7703,-1.7702,-1.7717,-1.7718,-1.7723,-1.7752,-1.7753,-1.7724,-1.7725,-1.7726,-1.7726,0,0,0,0,0,0,0,-1.768,-1.7684,-1.7718,-1.7705,-1.7704,-1.7699,-1.77,-1.7719,-1.7717,-1.7705,-1.7703,-1.7705,-1.7716,-1.7722,-1.7723,-1.7753,-1.7724,-1.7726,-1.7727,-1.7727,-1.781,-1.7811,0,0,0,0,0,0,-1.768,-1.7683,-1.7718,-1.7718,-1.769,-1.77,-1.7702,-1.7711,-1.7717,-1.7716,-1.7706,-1.7704,-1.772,-1.7722,-1.7724,-1.7762,-1.7726,-1.7727,-1.7728,-1.7809,-1.781,-1.7811,0,0,0,0,0,0,-1.7679,-1.7684,-1.7717,-1.77,-1.7704,-1.7702,-1.7713,-1.7712,-1.7718,-1.7718,-1.7717,-1.7713,-1.7719,-1.7722,-1.7745,-1.7762,-1.7728,-1.773,-1.7807,-1.7809,-1.7811,-1.7839,0,0,0,0,0,0,-1.7678,-1.7683,-1.7696,-1.7701,-1.7705,-1.7739,-1.7714,-1.7713,-1.7721,-1.7718,-1.7724,-1.7723,-1.7718,-1.7743,-1.7747,-1.7764,-1.7731,-1.7806,-1.7808,-1.781,-1.7837,-1.7842,-1.7846,0,0,0,0,0,-1.7676,-1.7703,-1.7697,-1.7701,-1.7721,-1.774,-1.7742,-1.7736,-1.7722,-1.7735,-1.7735,-1.7723,-1.776,-1.7745,-1.775,-1.7768,-1.7804,-1.7807,-1.781,-1.7835,-1.7841,-1.7846,0,0,0,0,0,0,-1.77,-1.7704,-1.7697,-1.7726,-1.7733,-1.7736,-1.7751,-1.7743,-1.7753,-1.775,-1.7742,-1.7743,-1.7769,-1.777,-1.7754,-1.7799,-1.778,-1.7784,-1.7797,-1.7803,-1.7808,-1.7807,-1.7732,0,0,0,0,0,-1.7709,-1.7724,-1.7726,-1.7752,-1.7756,-1.7753,-1.7761,-1.7756,-1.7762,-1.7765,-1.7766,-1.7773,-1.7786,-1.7795,-1.7807,-1.7837,-1.7838,-1.7851,-1.7856,-1.786,-1.7863,-1.7879,-1.7885,-1.7821,-1.7821,-1.782,0,0,-1.7727,-1.773,-1.7741,-1.7757,-1.7761,-1.7777,-1.7756,-1.7773,-1.7784,-1.7767,-1.779,-1.7791,-1.7798,-1.7825,-1.7837,-1.7827,-1.7881,-1.7864,-1.7867,-1.7868,-1.7883,-1.7889,-1.7895,-1.7822,-1.7822,-1.7822,0,0,-1.7767,-1.7772,-1.7794,-1.7799,-1.7807,-1.7805,-1.781,-1.7815,-1.7815,-1.7838,-1.7825,-1.7839,-1.7861,-1.7866,-1.7872,-1.7915,-1.7905,-1.7919,-1.7944,-1.796,-1.7965,-1.7969,-1.7984,-1.799,-1.7923,-1.7923,-1.7923,0,-1.7788,-1.7812,-1.7806,-1.7824,-1.7832,-1.7818,-1.7839,-1.7845,-1.7855,-1.7861,-1.785,-1.7878,-1.7881,-1.791,-1.792,-1.7925,-1.7931,-1.7918,-1.7965,-1.7969,-1.7973,-1.7988,-1.7993,-1.7924,-1.7924,-1.7924,-1.7924,0,-1.7838,-1.7854,-1.7871,-1.7882,-1.7892,-1.7912,-1.7908,-1.7918,-1.7912,-1.7911,-1.7934,-1.7938,-1.795,-1.7957,-1.7951,-1.7984,-1.7978,-1.7966,-1.7946,-1.7981,-1.7995,-1.8,-1.7927,-1.7926,-1.7926,-1.7925,0,0,-1.7893,-1.7902,-1.7908,-1.7913,-1.792,-1.7933,-1.7952,-1.7965,-1.7973,-1.7981,-1.7997,-1.8017,-1.8006,-1.8012,-1.8007,-1.8021,-1.8055,-1.8007,-1.8007,-1.8016,-1.8091,-1.81,-1.8107,-1.8048,-1.8049,-1.805,-1.8091,0,-1.7934,-1.7968,-1.7963,-1.7995,-1.801,-1.7997,-1.8014,-1.802,-1.802,-1.8033,-1.8032,-1.8046,-1.8031,-1.8035,-1.8048,-1.8048,-1.807,-1.8045,-1.8062,-1.8063,-1.8061,-1.8114,-1.8123,-1.8162,-1.8096,-1.8097,-1.8098,0,-1.7986,-1.7996,-1.8031,-1.8036,-1.8042,-1.8057,-1.8068,-1.8081,-1.8087,-1.8086,-1.8094,-1.8086,-1.8105,-1.8085,-1.8111,-1.8094,-1.8101,-1.8102,-1.8103,-1.8104,-1.8082,-1.8116,-1.8174,-1.818,-1.8106,-1.8105,-1.8105,0,-1.8023,-1.8046,-1.8069,-1.8074,-1.8081,-1.8092,-1.8095,-1.81,-1.8108,-1.8118,-1.8123,-1.8135,-1.8141,-1.815,-1.8146,-1.8132,-1.8172,-1.8152,-1.8171,-1.8172,-1.818,-1.818,-1.824,-1.8185,-1.8185,-1.8185,-1.8185,0,-1.8069,-1.809,-1.8086,-1.81,-1.8124,-1.8118,-1.8141,-1.8142,-1.8148,-1.8162,-1.8151,-1.8164,-1.8158,-1.817,-1.8167,-1.8189,-1.8192,-1.8191,-1.819,-1.8192,-1.8192,-1.8196,-1.8193,-1.8186,-1.8186,-1.8186,-1.8186,0,-1.8114,-1.8112,-1.8137,-1.8141,-1.8143,-1.816,-1.8164,-1.8177,-1.8176,-1.8194,-1.8198,-1.8197,-1.8211,-1.8208,-1.8223,-1.8221,-1.8249,-1.8244,-1.8246,-1.8245,-1.8265,-1.8263,-1.833,-1.8338,-1.8278,-1.8278,-1.8279,0,-1.8143,-1.816,-1.8166,-1.8175,-1.8179,-1.8194,-1.8202,-1.8197,-1.8206,-1.8215,-1.8227,-1.824,-1.8251,-1.8275,-1.8275,-1.8287,-1.8283,-1.8305,-1.8284,-1.8286,-1.8283,-1.8282,-1.8284,-1.8309,-1.831,-1.831,-1.8311,0,-1.8196,-1.8194,-1.8207,-1.8219,-1.8229,-1.8239,-1.8247,-1.8255,-1.825,-1.826,-1.8276,-1.8284,-1.83,-1.8314,-1.8325,-1.8328,-1.8319,-1.8317,-1.8323,-1.8325,-1.8326,-1.8326,-1.8258,-1.8316,-1.8315,-1.8315,-1.8315,-1.8315,-1.8234,-1.8248,-1.8255,-1.8269,-1.8275,-1.8283,-1.8296,-1.8297,-1.8309,-1.8322,-1.8318,-1.8335,-1.8341,-1.8356,-1.836,-1.8373,-1.8364,-1.8372,-1.8374,-1.8376,-1.8378,-1.8324,-1.8375,-1.8375,-1.8374,-1.8374,-1.8374,0,-1.8286,-1.8289,-1.8303,-1.8315,-1.8326,-1.8317,-1.8326,-1.8336,-1.8351,-1.8358,-1.8369,-1.8386,-1.8399,-1.8401,-1.8413,-1.8423,-1.8419,-1.8427,-1.8426,-1.8427,-1.8385,-1.8379,-1.843,-1.843,-1.843,-1.843,-1.843,-1.843,-1.8314,-1.8337,-1.8336,-1.8362,-1.8365,-1.8382,-1.8388,-1.8395,-1.8401,-1.8421,-1.8432,-1.8433,-1.8437,-1.845,-1.8462,-1.8462,-1.8467,-1.8476,-1.8474,-1.8435,-1.843,-1.8424,-1.8419,-1.8477,-1.8477,-1.8515,-1.8515,-1.8515]}]]